Weather observations for the past three days for
Del Rio, Del Rio International Airport
Imperial (Metric)
Date Time (cdt) Wind (mph) Vis. (mi.) Weather Sky Cond. Temperature (ºF) Relative Humidity Wind Chill (°F) Heat Index (°F) Pressure Precipitation (in)
Air Dwpt 6 hour altimeter (in) sea level (mb) 1 hr 3 hr 6 hr
Max. Min.
23 18:53 SE 14 G 25 10.00 Fair CLR 98.1 64.9 99 91.9 34% 101 29.87 1010.0
23 17:53 SE 8 10.00 Fair CLR 98.1 63 32% 100 29.87 1010.2
23 16:53 E 12 G 20 10.00 Fair CLR 98.1 62.1 31% 99 29.89 1010.9
23 15:53 SE 12 G 20 10.00 Fair CLR 98.1 61 29% 99 29.91 1011.7
23 14:53 SE 8 G 20 10.00 Fair CLR 96.1 61 31% 97 29.94 1012.5
23 13:53 NE 7 10.00 Fair CLR 95 61 32% 95 29.96 1013.3
23 12:53 SE 9 10.00 Fair CLR 91.9 63 93 75.9 38% 93 29.98 1014.1
23 11:53 SE 12 10.00 Fair CLR 91 64.9 42% 93 30 1014.7
23 10:53 E 8 10.00 Fair CLR 88 66 48% 90 30 1014.9
23 09:53 SE 7 10.00 Fair CLR 84.9 68 57% 88 30.01 1015.2
23 08:53 E 5 10.00 Fair CLR 81 69.1 67% 84 30.01 1015.0
23 07:53 E 3 10.00 Fair CLR 78.1 69.1 74% 80 30 1014.8
23 06:53 E 8 10.00 Fair CLR 77 68 82 75.9 74% 79 30 1014.6
23 05:53 E 6 10.00 A Few Clouds FEW055 77 70 79% 79 30 1014.7
23 04:53 E 5 10.00 Fair CLR 78.1 70 76% 80 29.98 1014.2
23 03:53 E 9 10.00 Fair CLR 79 68 69% 81 29.98 1013.9
23 02:53 SE 7 10.00 Fair CLR 80.1 66.9 64% 82 29.98 1014.1
23 01:53 SE 8 10.00 Fair CLR 82 66 58% 84 30 1014.6
23 00:53 E 5 10.00 Fair CLR 82 66 95 82 58% 84 30 1014.8
22 23:53 E 5 10.00 Fair CLR 84 66 55% 86 30 1014.8
22 22:53 SE 7 10.00 Fair CLR 86 64.9 49% 88 29.99 1014.2
22 21:53 SE 8 10.00 A Few Clouds FEW065 89.1 64.9 45% 91 29.96 1013.3
22 20:53 SE 10 10.00 A Few Clouds FEW065 91 64 41% 93 29.95 1012.9
22 19:53 SE 10 10.00 A Few Clouds FEW070 93.9 63 36% 95 29.94 1012.8
22 18:53 SE 10 10.00 A Few Clouds FEW070 95 64 97 89.1 36% 97 29.94 1012.7
22 17:53 SE 12 G 20 10.00 Partly Cloudy SCT065 95 64 36% 97 29.95 1013.1
22 16:53 SE 14 G 20 10.00 Mostly Cloudy BKN065 96.1 64 35% 98 29.96 1013.5
22 15:53 SE 7 G 20 10.00 Mostly Cloudy SCT060 BKN070 93.9 64.9 38% 96 29.98 1014.1
22 14:53 S 13 10.00 Partly Cloudy SCT049 93 66 41% 96 30.01 1014.9
22 13:53 SE 14 G 20 10.00 Partly Cloudy FEW043 FEW050 SCT060 91 68 47% 95 30.04 1016.1
22 12:53 SE 12 10.00 Mostly Cloudy BKN060 89.1 68 91 75.9 50% 93 30.06 1016.6
22 11:53 SE 10 G 18 10.00 Mostly Cloudy BKN050 87.1 68 53% 91 30.06 1016.9
22 10:53 SE 14 10.00 A Few Clouds FEW030 FEW044 84 69.1 61% 88 30.07 1017.3
22 09:53 S 14 10.00 Overcast BKN017 BKN024 OVC032 82 71.1 69% 86 30.08 1017.5
22 08:53 SE 12 10.00 Mostly Cloudy BKN011 80.1 73 79% 84 30.08 1017.6
22 07:53 E 10 10.00 Fair CLR 77 72 85% 78 30.07 1017.4
22 06:53 E 8 10.00 A Few Clouds FEW020 75.9 72 80.1 75.9 88% 76 30.07 1017.1
22 05:53 E 7 10.00 Fair CLR 77 72 85% 78 30.07 1017.1
22 04:53 E 8 10.00 Fair CLR 77 72 85% 78 30.06 1016.8
22 03:53 E 6 10.00 Mostly Cloudy BKN035 BKN045 79 72 79% 82 30.06 1016.8
22 02:53 E 8 10.00 Fair CLR 79 71.1 77% 82 30.07 1017.2
22 01:53 E 7 10.00 Fair CLR 79 71.1 77% 82 30.08 1017.4
22 00:53 E 7 10.00 Fair CLR 80.1 70 90 80.1 71% 83 30.07 1017.3
21 23:53 E 5 10.00 Mostly Cloudy BKN050 81 70 69% 84 30.07 1017.4
21 22:53 SE 6 10.00 Fair CLR 82 69.1 65% 85 30.06 1016.8
21 21:53 SE 6 10.00 Fair CLR 82.9 68 61% 86 30.03 1016.0
21 20:53 SE 9 10.00 Fair CLR 86 70 59% 91 30.03 1015.7
21 19:53 SE 10 10.00 Fair CLR 88 70 55% 93 30.01 1015.3
21 18:53 SE 7 10.00 Fair CLR 88 70 91 80.1 55% 93 30.01 1015.2 0.01
21 17:53 SE 9 10.00 Fair CLR 89.1 72 57% 96 30.02 1015.4
21 16:53 S 12 10.00 Mostly Cloudy FEW035 BKN043 BKN085 84.9 71.1 63% 90 30.05 1016.4
21 15:53 Vrbl 3 10.00 A Few Clouds FEW029 89.1 73 59% 97 30.05 1016.4 0.01
21 14:53 E 6 10.00 Light Rain FEW025 BKN060 BKN090 81 75.9 85% 87 30.08 1017.6 0.01
21 13:53 S 22 G 30 10.00 Partly Cloudy and Breezy FEW034 FEW045 SCT110 87.1 72 61% 94 30.08 1017.5
21 12:53 E 12 10.00 Mostly Cloudy FEW031 BKN100 86 73 89.1 77 65% 93 30.09 1017.9 0.01
21 11:53 SE 10 10.00 Mostly Cloudy FEW028 SCT075 BKN085 84 73.9 72% 91 30.11 1018.5 0.01
21 10:53 E 13 10.00 Partly Cloudy SCT023 SCT037 84.9 72 65% 91 30.1 1018.3
21 09:53 E 12 G 17 10.00 Overcast BKN018 BKN025 OVC037 82 73 74% 87 30.11 1018.6
21 08:53 E 12 10.00 Mostly Cloudy FEW011 SCT034 BKN047 80.1 73 79% 84 30.1 1018.4
21 07:53 E 9 10.00 Mostly Cloudy SCT014 BKN021 78.1 73.9 87% 81 30.09 1017.9
21 06:53 E 5 10.00 Overcast SCT015 BKN024 OVC038 78.1 73 79 78.1 85% 81 30.08 1017.5
21 05:53 E 9 10.00 Mostly Cloudy BKN013 BKN030 BKN039 78.1 73 85% 81 30.07 1017.3
21 04:53 E 9 10.00 Mostly Cloudy BKN012 78.1 73 85% 81 30.06 1016.9
21 03:53 E 9 10.00 Overcast SCT014 SCT018 OVC028 78.1 73 85% 81 30.06 1017.0
21 02:53 E 10 10.00 Overcast BKN013 OVC019 78.1 73 85% 81 30.07 1017.1
21 01:53 E 9 10.00 Partly Cloudy SCT018 78.1 73 85% 81 30.08 1017.6
21 00:53 E 9 10.00 Fair CLR 78.1 73 81 78.1 85% 81 30.1 1018.1
20 23:53 E 12 10.00 Mostly Cloudy BKN042 79 73 82% 82 30.09 1018.0
20 22:53 E 12 10.00 A Few Clouds FEW060 78.1 73 85% 81 30.08 1017.6
20 21:53 E 9 10.00 Partly Cloudy SCT070 78.1 73 85% 81 30.05 1016.7
20 20:53 E 10 G 20 10.00 Fair CLR 78.1 73 85% 81 30.04 1016.3
20 19:53 E 17 G 30 10.00 Mostly Cloudy FEW015 SCT028 BKN039 80.1 73.9 82% 85 30.03 1015.9
Date Time (cdt) Wind (mph) Vis. (mi.) Weather Sky Cond. Air Dwpt Max. Min. Relative Humidity Wind Chill (°F) Heat Index (°F) altimeter (in) sea level (mb) 1 hr 3 hr 6 hr
6 hour
Temperature (ºF) Pressure Precipitation (in)